User: anonymous   Login
Location: Home
(42.5358°N, 72.7383°W)
Time: 00:38:05
(UTC-05:00)
Language:

CAS-6 - Orbit

View from above orbital plane
View from above orbital plane
View from above satellite
View from above satellite

Ground track
Ground track

The orbit data is extracted from the following two-line orbital elements,

1 44881U 19093C   22024.79785342  .00000324  00000-0  47975-4 0  9997
2 44881  97.9067 106.0132 0013806 296.7326  63.2465 14.81548719113505
Epoch (UTC): 24 January 2022 19:08:54
Eccentricity: 0.0013806
inclination: 97.9067°
perigee height: 615 km
apogee height: 634 km
right ascension of ascending node: 106.0132°
argument of perigee: 296.7326°
revolutions per day: 14.81548719
mean anomaly at epoch: 63.2465°
orbit number at epoch: 11350

The dashed part of the orbit path shows where the satellite is in the earth's shadow,  

DLR